Погода в Манзурке

Россия / Иркутская область     53°28′55″N   106°03′54″E
темп.,
°C
ветер,
м/с
пор.,
м/с
влажн.,
%
обл.,
%
осадки,
мм/ч
давл.,
гПа
погр.,
м
30 ноября, вт
вт3023:00−8з3981100 0.0 1030462
02:00−9з2688100 0.0 1030196
05:00−9з2685100 0.0 1030186
08:00−10зюз1293100 0.0 103043
11:00−7з278198 0.0 1029545
14:00−5з267499 0.1 1027835
17:00−9ююз239694 0.0 102841
20:00−10ююз2497100 0.0 102880
1 декабря, ср
ср123:00−9ю2497100 0.0 102794
02:00−10ю2596100 0.0 1025111
05:00−12ююв2296100 0.0 102425
08:00−10ююз2587100 0.0 102291
11:00−4юз31065100 0.0 1018367
14:000з61949100 0.0 10151707
17:00−4зсз71977100 0.0 10161622
20:00−6сз7157188 0.1 10191248
2 декабря, чт
чт223:00−9сз51174100 0.0 1023920
02:00−9сз3878100 0.1 1025566
05:00−10сз3781100 0.0 1025568
08:00−10сз2781100 0.0 1026393
11:00−9зсз2577100 0.0 1026544
14:00−8зсз2483100 0.1 1024541
17:00−8ююв1197100 0.3 102444
20:00−8юз249596 0.7 102377
3 декабря, пт
пт323:00−8ююз239599 0.0 102344
02:00−8юз229687 0.0 102347
05:00−7зюз129491 0.0 102335
08:00−9ююз119797 0.0 102411
11:00−5ююз238998 0.0 1023114
14:00−2ю237073 0.0 1022168
17:00−10ю229512 0.0 102510
20:00−14ю119739 0.0 102610
4 декабря, сб
сб423:00−15ююз119621 0.0 10259
02:00−16ссв009661 0.0 10249
05:00−16с0096100 0.0 10219
08:00−16с119610 0.0 10199
11:00−10ю11755 0.0 101652
14:00−5ююв1171100 0.0 101373
17:00−9ююз1192100 0.0 101710
20:00−9з1292100 0.0 102045